Location: Madrid
(40.4000°N, 3.6830°W)
Time: 07:54:22
(UTC+02:00)

ISS - Pass Details

Date: 13 October 2017
Orbit: 400 x 408 km, 51.6° (Epoch: 24 October)

Event Time Altitude Azimuth Distance (km) Brightness Sun altitude
Rises 21:40:52 0° 299° (WNW) 2,326 1.2 -24.2°
Reaches altitude 10° 21:43:04 10° 290° (WNW) 1,464 0.0 -24.6°
Enters shadow 21:45:16 29° 254° (WSW) 784 -1.9 -25.0°
